COSMOS 2544 (759)

Last updated on Jan. 23, 2021, 7:31 a.m. UTC

1 44850U 19088A   21022.71859705 -.00000001  00000-0  00000-0 0  9998
2 44850  64.8667 139.8090 0010487 259.3885 139.9181  2.13102280  8706
UTC
Height (km)
Latitude
Longitude
Inclination
Orbital Period
UTC large
Height (km)
Speed (km/s)
/
Latitude / Longitude
Inclination (degrees)
Orbital Period (minutes)
Azimuth
Elevation
Range (km)
Doppler Factor
iOS Compass Heading
iOS Angle

Next 30 passes for location: Hong Kong

Rise time Rise Azimuth (degrees) Set time Set Azimuth (degrees) Duration Max altitude (degrees)

No matching passes for this satellites